Pompano Beach, FL

7:18 AM EST on December 11, 2017 (GMT -0500)
Pompano Beach

Weather History for KPMP - January, 2015

Change the Weather History Date:

Saturday, January 10, 2015

  Actual Average Record
Temperature  
Mean Temperature 68 °F -  
Max Temperature 77 °F 77 °F 84 °F (1971)
Min Temperature 59 °F 59 °F 33 °F (1956)
Cooling Degree Days 3    
Growing Degree Days 18 (Base 50)    
Moisture  
Dew Point 60 °F    
Average Humidity 74    
Maximum Humidity 90    
Minimum Humidity 62    
Precipitation  
Precipitation 0.00 in - - ()
Sea Level Pressure  
Sea Level Pressure 30.26 in    
Wind  
Wind Speed 11 mph (North)    
Max Wind Speed 17 mph    
Max Gust Speed 24 mph    
Visibility 8 miles    
Events      
Averages and records for this station are not official NWS values.
T = Trace of Precipitation, MM = Missing Value Source: NWS Daily Summary

Daily Weather History Graph

Daily Weather History Graph

Search for Another Location

Airport or City:

Trip Planner

Search our weather history database for the weather conditions in past years. The results will help you decide how hot, cold, wet, or windy it might be!

Date:

Astronomy

Jan. 10, 2015 Rise Set
Actual Time 7:09 AM EST 5:46 PM EST
Civil Twilight 6:44 AM EST 6:11 PM EST
Nautical Twilight 6:16 AM EST 6:39 PM EST
Astronomical Twilight 5:48 AM EST 7:07 PM EST
Moon 10:41 PM EST (1/10) 10:24 AM EST (1/10)
Length of Visible Light 11h 26m
Length of Day
10h 36m
Waning Gibbous, 75% of the Moon is Illuminated
Jan 10
Waning Gibbous
Jan 13
Last Quarter
Jan 20
New
Jan 26
First Quarter
Feb 3
Full

Hourly Weather History & Observations

Time (EST) Temp. Dew Point Humidity Pressure Visibility Wind Dir Wind Speed Gust Speed Precip Events Conditions
12:53 AM 64.0 °F 60.1 °F 87% 30.24 in 5.0 mi NNW 8.1 mph - N/A   Clear
1:53 AM 63.0 °F 59.0 °F 87% 30.23 in 5.0 mi NNW 8.1 mph - N/A   Clear
2:53 AM 63.0 °F 59.0 °F 87% 30.23 in 5.0 mi NNW 5.8 mph - N/A   Clear
3:13 AM 63.0 °F 59.0 °F 87% 30.23 in 5.0 mi NW 6.9 mph - N/A   Scattered Clouds
3:23 AM 63.0 °F 59.0 °F 87% 30.22 in 5.0 mi NNW 8.1 mph - N/A   Mostly Cloudy
3:53 AM 63.0 °F 59.0 °F 87% 30.24 in 5.0 mi NNW 10.4 mph - N/A   Overcast
4:53 AM 62.1 °F 57.9 °F 86% 30.25 in 4.0 mi NW 11.5 mph - N/A   Overcast
5:53 AM 60.1 °F 55.9 °F 86% 30.25 in 6.0 mi NNW 10.4 mph - N/A   Mostly Cloudy
6:00 AM 59.0 °F 55.9 °F 90% 30.25 in 6.0 mi NNW 9.2 mph - N/A   Scattered Clouds
6:53 AM 59.0 °F 55.0 °F 87% 30.27 in 7.0 mi NNW 10.4 mph - N/A   Clear
7:53 AM 59.0 °F 55.0 °F 87% 30.29 in 7.0 mi North 9.2 mph - N/A   Clear
8:53 AM 66.0 °F 57.0 °F 73% 30.30 in 10.0 mi North 8.1 mph - N/A   Clear
9:53 AM 70.0 °F 59.0 °F 68% 30.32 in 10.0 mi North 13.8 mph - N/A   Clear
10:53 AM 73.0 °F 61.0 °F 66% 30.31 in 10.0 mi North 13.8 mph - N/A   Clear
11:53 AM 75.9 °F 62.1 °F 62% 30.28 in 10.0 mi NNE 13.8 mph 21.9 mph N/A   Clear
12:53 PM 75.9 °F 63.0 °F 64% 30.25 in 10.0 mi NNE 13.8 mph - N/A   Clear
1:53 PM 77.0 °F 64.0 °F 64% 30.24 in 10.0 mi North 17.3 mph - N/A   Clear
2:53 PM 77.0 °F 64.0 °F 64% 30.23 in 10.0 mi NNE 16.1 mph - N/A   Clear
3:53 PM 75.9 °F 63.0 °F 64% 30.24 in 10.0 mi NNE 16.1 mph 21.9 mph N/A   Clear
4:53 PM 75.9 °F 64.0 °F 67% 30.25 in 10.0 mi NNE 12.7 mph - N/A   Clear
5:53 PM 75.0 °F 62.1 °F 64% 30.26 in 10.0 mi NE 12.7 mph - N/A   Mostly Cloudy
6:53 PM 75.0 °F 61.0 °F 62% 30.27 in 10.0 mi ENE 16.1 mph - N/A   Mostly Cloudy
7:53 PM 75.0 °F 62.1 °F 64% 30.28 in 10.0 mi ENE 16.1 mph 24.2 mph N/A   Mostly Cloudy
8:53 PM 73.9 °F 62.1 °F 66% 30.29 in 10.0 mi ENE 15.0 mph - N/A   Partly Cloudy
9:53 PM 73.9 °F 62.1 °F 66% 30.30 in 10.0 mi ENE 15.0 mph - N/A   Scattered Clouds
10:53 PM 75.0 °F 62.1 °F 64% 30.29 in 10.0 mi ENE 12.7 mph - N/A   Clear
11:53 PM 75.0 °F 63.0 °F 66% 30.28 in 10.0 mi ENE 16.1 mph - N/A   Scattered Clouds